QPF
0.00 0.00 0.00 0.00 0.00 0.00 0.00 0.00 0.00 0.00 0.00 0.00 0.00 0.00 0.00 0.00 0.00 0.00 0.00 0.00 0.00 0.00 0.00 0.00 0.00 0.00 0.00 0.00 0.00 0.00 0.00 0.00 0.00 0.00 0.00 0.00 0.00 0.00 0.00 0.00 0.00 0.00 0.00 0.00
0.00 0.00 0.00 0.00 0.00 0.00 0.00 0.00 0.00 0.00 0.00 0.00 0.00 0.00 0.00 0.00 0.00 0.00 0.00 0.00 0.00 0.00 0.00 0.00 0.00 0.00 0.00 0.00 0.00 0.00 0.00 0.00 0.00 0.00 0.00 0.00 0.00 0.00 0.00 0.00 0.00 0.00 0.00 0.00
0.00 0.00 0.00 0.00 0.00 0.00 0.00 0.00 0.00 0.00 0.00 0.00 0.00 0.00 0.00 0.00 0.00 0.00 0.00 0.00 0.00 0.00 0.00 0.00 0.00 0.00 0.00 0.00 0.00 0.00 0.00 0.00 0.00 0.00 0.00 0.00 0.00 0.00 0.00 0.00 0.00 0.00 0.00 0.00
0.00 0.00 0.00 0.00 0.00 0.00 0.00 0.00 0.00 0.00 0.00 0.00 0.00 0.00 0.00 0.00 0.00 0.00 0.00 0.00 0.00 0.00 0.00 0.00 0.00 0.00 0.00 0.00 0.00 0.00 0.00 0.00 0.00 0.00 0.00 0.00 0.00 0.00 0.00 0.00 0.00 0.00 0.00 0.00
0.00 0.00 0.00 0.00 0.00 0.00 0.00 0.00 0.00 0.00 0.00 0.00 0.00 0.00 0.00 0.00 0.00 0.00 0.00 0.00 0.00 0.00 0.00 0.00 0.00 0.00 0.00 0.00 0.00 0.00 0.00 0.00 0.00 0.00 0.00 0.00 0.00 0.00 0.00 0.00 0.00 0.00 0.00 0.00
0.00 0.00 0.00 0.00 0.00 0.00 0.00 0.00 0.00 0.00 0.00 0.00 0.00 0.00 0.00 0.00 0.00 0.00 0.00 0.00 0.00 0.00 0.00 0.00 0.00 0.00 0.00 0.00 0.00 0.00 0.00 0.00 0.00 0.00 0.00 0.00 0.00 0.00 0.00 0.00 0.00 0.00 0.00 0.00
0.00 0.00 0.00 0.00 0.00 0.00 0.00 0.00 0.00 0.00 0.00 0.00 0.00 0.00 0.00 0.00 0.00 0.00 0.00 0.00 0.00 0.00 0.00 0.00 0.00 0.00 0.00 0.00 0.00 0.00 0.00 0.00 0.00 0.00 0.00 0.00 0.00 0.00 0.00 0.00 0.00 0.00 0.00 0.00
0.00 0.00 0.00 0.00 0.00 0.00 0.00 0.00 0.00 0.00 0.00 0.00 0.00 0.00 0.00 0.00 0.00 0.00 0.00 0.00 0.00 0.00 0.00 0.00 0.00 0.00 0.00 0.00 0.00 0.00 0.00 0.00 0.00 0.00 0.00 0.00 0.00 0.00 0.00 0.00 0.00 0.00 0.00 0.00
0.01 0.00 0.00 0.00 0.00 0.00 0.00 0.00 0.00 0.00 0.00 0.00 0.00 0.00 0.00 0.00 0.00 0.00 0.00 0.00 0.00 0.00 0.00 0.00 0.00 0.00 0.00 0.00 0.00 0.00 0.00 0.00 0.00 0.00 0.00 0.00 0.00 0.00 0.00 0.00 0.00 0.00 0.00 0.00
0.01 0.01 0.00 0.00 0.00 0.00 0.00 0.00 0.00 0.00 0.00 0.00 0.00 0.00 0.00 0.00 0.00 0.00 0.00 0.00 0.00 0.00 0.00 0.00 0.00 0.00 0.00 0.00 0.00 0.00 0.00 0.00 0.00 0.00 0.00 0.00 0.00 0.00 0.00 0.00 0.00 0.00 0.00 0.00
0.01 0.02 0.01 0.00 0.00 0.00 0.00 0.00 0.00 0.00 0.00 0.01 0.02 0.01 0.00 0.00 0.00 0.00 0.00 0.00 0.00 0.00 0.00 0.00 0.00 0.00 0.00 0.00 0.00 0.00 0.00 0.00 0.00 0.00 0.00 0.00 0.00 0.00 0.00 0.00 0.00 0.00 0.00 0.00
0.01 0.02 0.02 0.00 0.00 0.00 0.00 0.00 0.00 0.01 0.01 0.02 0.03 0.02 0.00 0.00 0.00 0.00 0.00 0.00 0.00 0.00 0.00 0.00 0.00 0.00 0.00 0.00 0.00 0.00 0.00 0.00 0.00 0.00 0.00 0.00 0.00 0.00 0.00 0.00 0.00 0.00 0.00 0.00
0.01 0.04 0.07 0.02 0.00 0.00 0.00 0.00 0.00 0.01 0.06 0.08 0.09 0.05 0.00 0.00 0.00 0.00 0.00 0.00 0.00 0.00 0.00 0.00 0.00 0.00 0.00 0.00 0.00 0.00 0.00 0.00 0.00 0.00 0.00 0.00 0.00 0.00 0.00 0.00 0.00 0.00 0.00 0.00
0.02 0.05 0.06 0.03 0.00 0.01 0.01 0.01 0.00 0.02 0.07 0.09 0.06 0.02 0.01 0.01 0.00 0.00 0.00 0.00 0.00 0.00 0.00 0.00 0.00 0.00 0.00 0.00 0.00 0.00 0.00 0.00 0.00 0.00 0.00 0.00 0.00 0.00 0.00 0.00 0.00 0.00 0.00 0.00
0.04 0.10 0.05 0.02 0.02 0.03 0.04 0.02 0.00 0.01 0.02 0.05 0.02 0.01 0.01 0.00 0.00 0.00 0.00 0.00 0.00 0.00 0.00 0.00 0.00 0.00 0.00 0.00 0.00 0.00 0.00 0.00 0.00 0.00 0.00 0.00 0.00 0.00 0.00 0.00 0.00 0.00 0.00 0.00
0.01 0.03 0.02 0.01 0.00 0.01 0.02 0.01 0.00 0.00 0.00 0.00 0.00 0.00 0.00 0.00 0.00 0.00 0.00 0.00 0.00 0.00 0.00 0.00 0.00 0.00 0.00 0.00 0.00 0.00 0.00 0.00 0.00 0.00 0.00 0.00 0.00 0.00 0.00 0.00 0.00 0.00 0.00 0.00
0.03 0.05 0.07 0.04 0.00 0.01 0.01 0.00 0.00 0.00 0.00 0.00 0.00 0.00 0.00 0.00 0.00 0.00 0.00 0.00 0.00 0.00 0.00 0.00 0.00 0.00 0.00 0.00 0.00 0.00 0.00 0.00 0.00 0.00 0.00 0.00 0.00 0.00 0.00 0.00 0.00 0.00 0.00 0.00
0.02 0.02 0.05 0.05 0.01 0.01 0.00 0.00 0.00 0.00 0.00 0.00 0.00 0.00 0.00 0.00 0.00 0.00 0.00 0.00 0.00 0.00 0.00 0.00 0.00 0.00 0.00 0.00 0.00 0.00 0.00 0.00 0.00 0.00 0.00 0.00 0.00 0.00 0.00 0.00 0.00 0.00 0.00 0.00
0.00 0.00 0.01 0.01 0.01 0.00 0.00 0.00 0.00 0.00 0.00 0.00 0.00 0.00 0.00 0.00 0.00 0.00 0.00 0.00 0.00 0.00 0.00 0.00 0.00 0.00 0.00 0.00 0.00 0.00 0.00 0.00 0.00 0.00 0.00 0.00 0.00 0.00 0.00 0.00 0.00 0.00 0.00 0.00
0.00 0.00 0.02 0.02 0.01 0.00 0.00 0.00 0.00 0.00 0.00 0.00 0.00 0.00 0.00 0.00 0.00 0.00 0.00 0.00 0.00 0.00 0.00 0.00 0.00 0.00 0.00 0.00 0.00 0.00 0.00 0.00 0.00 0.00 0.00 0.00 0.00 0.00 0.01 0.00 0.00 0.00 0.00 0.00
0.00 0.00 0.02 0.02 0.02 0.00 0.00 0.00 0.00 0.00 0.00 0.00 0.00 0.00 0.00 0.00 0.00 0.00 0.00 0.00 0.00 0.00 0.00 0.00 0.00 0.00 0.00 0.00 0.00 0.00 0.00 0.00 0.00 0.00 0.00 0.00 0.00 0.00 0.00 0.00 0.00 0.00 0.00 0.00
0.00 0.00 0.00 0.00 0.01 0.00 0.00 0.00 0.00 0.00 0.00 0.00 0.00 0.00 0.00 0.00 0.00 0.00 0.00 0.00 0.00 0.00 0.00 0.00 0.00 0.00 0.00 0.00 0.00 0.00 0.00 0.00 0.00 0.00 0.00 0.00 0.00 0.00 0.00 0.00 0.00 0.00 0.00 0.00
0.00 0.00 0.00 0.00 0.00 0.00 0.00 0.00 0.00 0.00 0.00 0.00 0.00 0.00 0.00 0.00 0.00 0.00 0.00 0.00 0.00 0.00 0.00 0.00 0.00 0.00 0.00 0.00 0.00 0.00 0.00 0.00 0.00 0.00 0.00 0.00 0.00 0.00 0.00 0.00 0.00 0.00 0.00 0.00
0.00 0.00 0.00 0.00 0.00 0.00 0.00 0.00 0.00 0.00 0.00 0.00 0.00 0.00 0.00 0.00 0.00 0.00 0.00 0.00 0.00 0.00 0.00 0.00 0.00 0.00 0.00 0.00 0.00 0.00 0.00 0.00 0.00 0.00 0.00 0.00 0.00 0.00 0.00 0.00 0.00 0.00 0.00 0.01
0.00 0.00 0.00 0.00 0.00 0.00 0.00 0.00 0.00 0.00 0.00 0.00 0.00 0.00 0.00 0.00 0.00 0.00 0.00 0.00 0.00 0.00 0.00 0.00 0.00 0.00 0.00 0.00 0.00 0.00 0.00 0.00 0.00 0.00 0.00 0.00 0.00 0.00 0.00 0.00 0.00 0.00 0.00 0.00
0.00 0.00 0.00 0.00 0.00 0.00 0.00 0.00 0.00 0.00 0.00 0.00 0.00 0.00 0.00 0.00 0.00 0.00 0.00 0.00 0.00 0.00 0.00 0.00 0.00 0.00 0.00 0.00 0.00 0.00 0.00 0.00 0.00 0.00 0.00 0.00 0.00 0.00 0.00 0.00 0.00 0.00 0.00 0.01
MSLP
1018.26 1018.20 1018.08 1017.93 1017.80 1017.70 1017.61 1017.51 1017.33 1017.04 1016.58 1015.96 1015.17 1014.26 1013.29 1012.34 1011.49 1010.77 1010.21 1009.81 1009.52 1009.32 1009.14 1008.95 1008.74 1008.51 1008.29 1008.11 1008.01 1008.02 1008.17 1008.44 1008.83 1009.30 1009.81 1010.34 1010.87 1011.38 1011.88 1012.38 1012.89 1013.41 1013.96 1014.54
1018.17 1018.04 1017.88 1017.73 1017.62 1017.55 1017.49 1017.41 1017.23 1016.90 1016.39 1015.69 1014.83 1013.88 1012.91 1012.00 1011.25 1010.68 1010.31 1010.10 1010.01 1009.98 1009.93 1009.82 1009.64 1009.37 1009.08 1008.79 1008.58 1008.47 1008.50 1008.67 1008.97 1009.37 1009.82 1010.30 1010.79 1011.26 1011.72 1012.18 1012.64 1013.13 1013.63 1014.17
1017.94 1017.77 1017.60 1017.48 1017.41 1017.38 1017.37 1017.30 1017.10 1016.74 1016.17 1015.41 1014.51 1013.55 1012.61 1011.80 1011.19 1010.81 1010.66 1010.68 1010.80 1010.95 1011.03 1011.01 1010.84 1010.56 1010.20 1009.83 1009.50 1009.28 1009.20 1009.26 1009.46 1009.76 1010.12 1010.52 1010.93 1011.33 1011.72 1012.11 1012.52 1012.94 1013.40 1013.88
1017.59 1017.42 1017.28 1017.20 1017.19 1017.23 1017.25 1017.19 1016.99 1016.59 1015.97 1015.18 1014.27 1013.33 1012.47 1011.80 1011.36 1011.19 1011.26 1011.50 1011.83 1012.13 1012.34 1012.38 1012.23 1011.93 1011.52 1011.07 1010.66 1010.34 1010.15 1010.11 1010.20 1010.39 1010.65 1010.93 1011.23 1011.53 1011.82 1012.12 1012.45 1012.81 1013.20 1013.64
1017.19 1017.04 1016.96 1016.95 1017.01 1017.09 1017.15 1017.10 1016.88 1016.45 1015.82 1015.01 1014.13 1013.26 1012.52 1012.00 1011.76 1011.80 1012.08 1012.51 1012.99 1013.43 1013.71 1013.79 1013.65 1013.33 1012.88 1012.37 1011.89 1011.50 1011.23 1011.10 1011.08 1011.16 1011.29 1011.45 1011.62 1011.79 1011.96 1012.16 1012.39 1012.67 1013.01 1013.38
1016.81 1016.71 1016.68 1016.74 1016.86 1016.99 1017.06 1017.01 1016.77 1016.32 1015.68 1014.91 1014.08 1013.32 1012.73 1012.39 1012.35 1012.58 1013.04 1013.62 1014.22 1014.72 1015.04 1015.12 1014.97 1014.62 1014.13 1013.59 1013.08 1012.64 1012.31 1012.11 1012.00 1011.97 1011.98 1012.00 1012.02 1012.05 1012.09 1012.17 1012.31 1012.51 1012.77 1013.10
1016.49 1016.44 1016.47 1016.58 1016.74 1016.88 1016.95 1016.88 1016.61 1016.16 1015.53 1014.81 1014.09 1013.47 1013.05 1012.91 1013.06 1013.47 1014.07 1014.76 1015.41 1015.93 1016.24 1016.29 1016.11 1015.72 1015.21 1014.65 1014.11 1013.66 1013.30 1013.05 1012.87 1012.74 1012.63 1012.52 1012.40 1012.29 1012.20 1012.16 1012.19 1012.31 1012.50 1012.76
1016.28 1016.27 1016.34 1016.47 1016.62 1016.74 1016.77 1016.65 1016.35 1015.89 1015.30 1014.67 1014.08 1013.63 1013.41 1013.48 1013.81 1014.38 1015.08 1015.83 1016.50 1017.00 1017.26 1017.25 1017.02 1016.59 1016.06 1015.50 1014.97 1014.52 1014.16 1013.87 1013.65 1013.44 1013.23 1013.00 1012.75 1012.51 1012.29 1012.14 1012.07 1012.09 1012.21 1012.41
1016.17 1016.18 1016.25 1016.36 1016.47 1016.52 1016.47 1016.29 1015.95 1015.48 1014.95 1014.42 1013.99 1013.74 1013.74 1014.01 1014.52 1015.22 1016.01 1016.78 1017.43 1017.87 1018.06 1017.99 1017.69 1017.24 1016.71 1016.16 1015.65 1015.22 1014.88 1014.59 1014.33 1014.07 1013.78 1013.45 1013.10 1012.74 1012.41 1012.15 1011.99 1011.92 1011.96 1012.09
1016.15 1016.15 1016.19 1016.24 1016.25 1016.20 1016.05 1015.78 1015.40 1014.94 1014.47 1014.06 1013.81 1013.76 1013.97 1014.44 1015.12 1015.93 1016.77 1017.55 1018.16 1018.53 1018.65 1018.51 1018.17 1017.70 1017.17 1016.65 1016.19 1015.80 1015.49 1015.21 1014.95 1014.65 1014.31 1013.91 1013.47 1013.03 1012.61 1012.25 1012.00 1011.84 1011.80 1011.84
1016.20 1016.17 1016.14 1016.09 1015.99 1015.81 1015.54 1015.18 1014.75 1014.30 1013.90 1013.63 1013.54 1013.69 1014.10 1014.75 1015.56 1016.46 1017.34 1018.10 1018.66 1018.97 1019.02 1018.83 1018.46 1017.99 1017.49 1017.02 1016.61 1016.28 1016.01 1015.77 1015.51 1015.20 1014.83 1014.39 1013.89 1013.39 1012.90 1012.47 1012.14 1011.90 1011.76 1011.71
1016.32 1016.23 1016.12 1015.95 1015.72 1015.42 1015.03 1014.58 1014.11 1013.68 1013.36 1013.20 1013.27 1013.60 1014.17 1014.95 1015.87 1016.82 1017.70 1018.43 1018.94 1019.19 1019.19 1018.97 1018.60 1018.16 1017.70 1017.29 1016.96 1016.69 1016.47 1016.26 1016.02 1015.72 1015.33 1014.87 1014.35 1013.81 1013.28 1012.80 1012.39 1012.08 1011.85 1011.69
1016.52 1016.35 1016.15 1015.87 1015.52 1015.10 1014.62 1014.11 1013.62 1013.22 1012.96 1012.91 1013.10 1013.55 1014.23 1015.10 1016.06 1017.01 1017.87 1018.55 1019.00 1019.20 1019.17 1018.94 1018.59 1018.20 1017.81 1017.48 1017.21 1017.01 1016.85 1016.67 1016.46 1016.16 1015.78 1015.32 1014.79 1014.24 1013.69 1013.17 1012.72 1012.33 1012.01 1011.75
1016.81 1016.57 1016.28 1015.91 1015.47 1014.97 1014.43 1013.88 1013.40 1013.02 1012.83 1012.85 1013.12 1013.64 1014.36 1015.23 1016.17 1017.08 1017.87 1018.47 1018.86 1019.01 1018.96 1018.74 1018.44 1018.11 1017.80 1017.55 1017.36 1017.22 1017.11 1016.97 1016.77 1016.50 1016.13 1015.68 1015.16 1014.61 1014.05 1013.52 1013.02 1012.57 1012.17 1011.80
1017.22 1016.93 1016.56 1016.13 1015.64 1015.09 1014.52 1013.98 1013.52 1013.18 1013.03 1013.09 1013.38 1013.90 1014.59 1015.40 1016.24 1017.04 1017.72 1018.22 1018.53 1018.64 1018.58 1018.39 1018.15 1017.90 1017.67 1017.50 1017.39 1017.30 1017.22 1017.11 1016.93 1016.67 1016.31 1015.88 1015.38 1014.84 1014.29 1013.75 1013.23 1012.73 1012.25 1011.79
1017.78 1017.43 1017.01 1016.55 1016.03 1015.48 1014.92 1014.40 1013.97 1013.67 1013.54 1013.61 1013.87 1014.32 1014.92 1015.60 1016.29 1016.93 1017.46 1017.84 1018.06 1018.12 1018.06 1017.92 1017.74 1017.57 1017.43 1017.34 1017.29 1017.25 1017.19 1017.09 1016.92 1016.66 1016.31 1015.89 1015.41 1014.89 1014.35 1013.80 1013.26 1012.72 1012.17 1011.62
1018.46 1018.06 1017.61 1017.12 1016.60 1016.07 1015.55 1015.07 1014.68 1014.41 1014.28 1014.32 1014.52 1014.86 1015.30 1015.80 1016.31 1016.76 1017.12 1017.37 1017.51 1017.53 1017.48 1017.38 1017.27 1017.19 1017.13 1017.11 1017.10 1017.09 1017.04 1016.94 1016.76 1016.49 1016.14 1015.73 1015.26 1014.75 1014.22 1013.67 1013.10 1012.52 1011.91 1011.28
1019.20 1018.75 1018.27 1017.77 1017.26 1016.76 1016.27 1015.84 1015.48 1015.23 1015.09 1015.08 1015.18 1015.39 1015.67 1015.98 1016.28 1016.55 1016.75 1016.88 1016.94 1016.94 1016.91 1016.86 1016.83 1016.82 1016.83 1016.86 1016.89 1016.89 1016.84 1016.71 1016.51 1016.22 1015.86 1015.44 1014.97 1014.47 1013.93 1013.37 1012.77 1012.14 1011.46 1010.74
1019.89 1019.40 1018.88 1018.36 1017.85 1017.36 1016.91 1016.51 1016.19 1015.94 1015.79 1015.72 1015.73 1015.81 1015.93 1016.07 1016.21 1016.32 1016.39 1016.43 1016.44 1016.44 1016.45 1016.46 1016.50 1016.56 1016.63 1016.70 1016.74 1016.73 1016.66 1016.50 1016.26 1015.94 1015.56 1015.12 1014.63 1014.11 1013.56 1012.96 1012.32 1011.63 1010.87 1010.06
1020.42 1019.86 1019.30 1018.74 1018.22 1017.73 1017.30 1016.92 1016.62 1016.38 1016.22 1016.11 1016.06 1016.04 1016.05 1016.07 1016.09 1016.10 1016.10 1016.10 1016.11 1016.13 1016.19 1016.27 1016.38 1016.50 1016.61 1016.70 1016.73 1016.70 1016.58 1016.38 1016.08 1015.72 1015.30 1014.82 1014.31 1013.76 1013.17 1012.53 1011.83 1011.06 1010.21 1009.30
1020.65 1020.02 1019.40 1018.80 1018.24 1017.75 1017.32 1016.97 1016.69 1016.47 1016.31 1016.20 1016.12 1016.07 1016.03 1015.99 1015.96 1015.94 1015.94 1015.95 1016.00 1016.08 1016.20 1016.34 1016.51 1016.67 1016.80 1016.88 1016.89 1016.81 1016.64 1016.37 1016.02 1015.60 1015.12 1014.61 1014.05 1013.46 1012.82 1012.12 1011.34 1010.47 1009.52 1008.50
1020.48 1019.79 1019.11 1018.46 1017.88 1017.38 1016.96 1016.63 1016.38 1016.20 1016.08 1016.01 1015.96 1015.93 1015.91 1015.91 1015.91 1015.92 1015.97 1016.04 1016.16 1016.31 1016.49 1016.69 1016.89 1017.07 1017.19 1017.24 1017.20 1017.06 1016.81 1016.46 1016.04 1015.55 1015.02 1014.45 1013.85 1013.20 1012.50 1011.72 1010.86 1009.90 1008.84 1007.70
1019.87 1019.13 1018.41 1017.74 1017.15 1016.66 1016.27 1015.99 1015.80 1015.70 1015.65 1015.66 1015.70 1015.76 1015.83 1015.90 1015.99 1016.10 1016.24 1016.40 1016.59 1016.81 1017.04 1017.28 1017.48 1017.64 1017.72 1017.71 1017.59 1017.35 1017.01 1016.58 1016.08 1015.52 1014.92 1014.29 1013.63 1012.92 1012.15 1011.30 1010.35 1009.30 1008.14 1006.89
1018.83 1018.08 1017.37 1016.72 1016.17 1015.73 1015.41 1015.21 1015.12 1015.12 1015.20 1015.33 1015.49 1015.68 1015.88 1016.09 1016.31 1016.53 1016.76 1017.01 1017.28 1017.54 1017.79 1018.02 1018.18 1018.28 1018.28 1018.16 1017.94 1017.59 1017.15 1016.62 1016.03 1015.39 1014.72 1014.03 1013.31 1012.54 1011.70 1010.78 1009.76 1008.61 1007.36 1006.03
1017.47 1016.78 1016.13 1015.57 1015.11 1014.77 1014.57 1014.50 1014.54 1014.69 1014.91 1015.20 1015.52 1015.86 1016.21 1016.55 1016.89 1017.22 1017.54 1017.85 1018.14 1018.40 1018.63 1018.79 1018.87 1018.86 1018.74 1018.49 1018.13 1017.67 1017.10 1016.46 1015.78 1015.06 1014.32 1013.56 1012.78 1011.95 1011.05 1010.07 1008.98 1007.78 1006.47 1005.07
1015.99 1015.41 1014.90 1014.48 1014.18 1014.01 1013.97 1014.07 1014.28 1014.59 1014.98 1015.42 1015.90 1016.38 1016.86 1017.32 1017.75 1018.15 1018.50 1018.82 1019.08 1019.29 1019.43 1019.47 1019.42 1019.26 1018.99 1018.59 1018.08 1017.47 1016.78 1016.03 1015.25 1014.44 1013.63 1012.80 1011.96 1011.08 1010.13 1009.10 1007.97 1006.73 1005.39 1003.97
Thickness
5654 5653 5656 5667 5663 5665 5659 5650 5650 5661 5672 5657 5659 5661 5668 5685 5691 5698 5700 5699 5700 5702 5706 5708 5705 5703 5704 5706 5706 5706 5705 5701 5694 5688 5683 5680 5680 5676 5672 5669 5663 5658 5653 5647
5642 5646 5663 5662 5645 5640 5638 5637 5644 5653 5659 5642 5649 5654 5665 5676 5683 5691 5687 5687 5688 5688 5689 5688 5687 5687 5687 5689 5693 5695 5693 5689 5684 5679 5675 5672 5670 5668 5664 5657 5652 5648 5645 5641
5647 5652 5648 5637 5631 5627 5632 5631 5639 5638 5640 5636 5631 5651 5651 5671 5682 5678 5677 5677 5676 5670 5667 5667 5667 5667 5668 5671 5674 5676 5677 5675 5672 5666 5660 5654 5652 5650 5650 5647 5640 5633 5628 5627
5632 5636 5626 5624 5626 5623 5623 5632 5626 5620 5613 5626 5620 5634 5649 5654 5663 5661 5662 5658 5651 5645 5642 5641 5642 5645 5649 5652 5657 5661 5660 5657 5655 5653 5649 5644 5640 5639 5636 5631 5626 5619 5612 5609
5624 5617 5614 5613 5619 5615 5620 5612 5608 5606 5608 5611 5612 5615 5647 5639 5639 5646 5639 5629 5620 5615 5612 5612 5614 5619 5627 5636 5641 5641 5641 5639 5636 5634 5633 5631 5629 5628 5627 5622 5618 5612 5604 5597
5610 5606 5608 5613 5609 5603 5601 5598 5595 5593 5598 5607 5619 5612 5632 5635 5633 5627 5613 5599 5592 5591 5592 5591 5594 5599 5605 5611 5616 5620 5621 5618 5616 5616 5616 5615 5614 5613 5612 5610 5608 5604 5599 5591
5601 5598 5598 5598 5598 5590 5590 5588 5585 5586 5589 5607 5604 5603 5624 5627 5607 5596 5583 5576 5576 5576 5577 5578 5580 5581 5579 5579 5583 5590 5595 5595 5594 5594 5595 5596 5596 5595 5596 5596 5596 5595 5592 5586
5589 5596 5594 5587 5592 5592 5580 5580 5573 5569 5580 5597 5582 5593 5616 5591 5571 5564 5560 5558 5556 5554 5553 5553 5553 5553 5552 5552 5555 5560 5564 5567 5569 5571 5572 5574 5576 5577 5579 5579 5578 5578 5579 5576
5577 5582 5578 5572 5570 5572 5563 5564 5572 5558 5554 5555 5582 5600 5599 5565 5558 5544 5537 5533 5528 5527 5526 5525 5524 5524 5526 5528 5530 5534 5538 5540 5543 5547 5549 5551 5553 5555 5556 5557 5557 5558 5559 5559
5553 5551 5559 5556 5549 5549 5552 5553 5536 5539 5533 5539 5561 5578 5590 5584 5546 5526 5518 5513 5506 5503 5502 5501 5500 5499 5500 5503 5506 5511 5515 5517 5520 5523 5525 5525 5527 5530 5532 5534 5536 5538 5540 5541
5534 5523 5536 5537 5543 5550 5534 5531 5533 5532 5523 5518 5527 5551 5560 5536 5512 5500 5493 5488 5485 5482 5481 5480 5478 5477 5478 5480 5484 5487 5491 5494 5496 5498 5500 5501 5504 5506 5509 5512 5515 5518 5521 5523
5519 5510 5514 5532 5539 5533 5532 5532 5527 5514 5511 5512 5512 5525 5516 5495 5484 5477 5471 5465 5463 5462 5462 5461 5459 5458 5458 5459 5460 5462 5464 5467 5469 5473 5476 5478 5481 5485 5488 5490 5493 5496 5501 5505
5504 5487 5492 5507 5518 5507 5509 5515 5515 5509 5497 5497 5496 5505 5468 5463 5462 5458 5454 5449 5444 5443 5441 5440 5439 5437 5436 5435 5436 5437 5438 5440 5442 5446 5451 5456 5459 5462 5466 5469 5472 5475 5479 5484
5482 5475 5481 5492 5507 5500 5488 5489 5490 5486 5478 5482 5487 5494 5479 5458 5450 5442 5436 5432 5429 5425 5421 5419 5418 5417 5414 5412 5412 5413 5416 5416 5416 5419 5424 5429 5433 5437 5441 5445 5449 5453 5457 5462
5458 5456 5463 5467 5472 5468 5464 5464 5472 5472 5469 5457 5464 5468 5476 5468 5439 5424 5418 5415 5411 5408 5405 5401 5398 5396 5394 5392 5390 5390 5391 5391 5391 5394 5399 5403 5407 5410 5414 5419 5424 5428 5432 5438
5441 5436 5441 5439 5453 5451 5442 5451 5458 5455 5451 5445 5441 5446 5449 5414 5402 5398 5397 5395 5393 5390 5386 5383 5380 5378 5375 5371 5368 5366 5367 5366 5365 5368 5372 5376 5380 5384 5388 5392 5397 5402 5407 5413
5414 5413 5412 5418 5430 5418 5416 5433 5438 5440 5446 5442 5433 5418 5377 5374 5375 5377 5376 5374 5373 5370 5367 5365 5363 5361 5357 5351 5344 5342 5342 5341 5340 5341 5344 5348 5352 5357 5360 5364 5370 5376 5383 5388
5396 5391 5384 5385 5373 5375 5419 5415 5417 5417 5416 5391 5367 5351 5349 5349 5353 5355 5352 5348 5349 5347 5346 5344 5341 5339 5336 5329 5322 5319 5316 5315 5316 5317 5318 5320 5322 5325 5328 5333 5340 5348 5356 5363
5386 5378 5366 5355 5355 5367 5383 5379 5379 5375 5369 5350 5341 5335 5333 5329 5328 5336 5333 5328 5328 5326 5323 5318 5313 5310 5308 5304 5299 5294 5292 5290 5289 5289 5290 5291 5290 5290 5293 5297 5307 5317 5326 5337
5361 5350 5338 5329 5324 5333 5361 5350 5341 5335 5327 5321 5315 5313 5313 5307 5310 5327 5325 5315 5310 5306 5299 5293 5287 5284 5282 5279 5274 5269 5267 5265 5263 5262 5262 5261 5258 5257 5259 5264 5271 5281 5291 5307
5323 5315 5314 5316 5314 5327 5331 5318 5315 5310 5316 5305 5300 5298 5298 5296 5299 5304 5303 5297 5290 5282 5274 5266 5262 5261 5258 5251 5243 5241 5241 5238 5234 5233 5232 5231 5229 5227 5229 5232 5239 5246 5256 5272
5318 5309 5291 5289 5293 5307 5309 5300 5301 5304 5303 5297 5294 5293 5289 5287 5287 5285 5283 5280 5271 5260 5251 5244 5239 5237 5232 5222 5212 5211 5212 5209 5203 5200 5199 5198 5197 5197 5199 5202 5209 5214 5222 5236
5301 5309 5295 5282 5300 5308 5297 5294 5297 5295 5289 5292 5290 5286 5280 5275 5273 5272 5268 5259 5248 5238 5230 5220 5211 5207 5206 5196 5185 5180 5182 5175 5170 5168 5166 5164 5164 5165 5167 5171 5179 5186 5195 5207
5299 5296 5283 5277 5293 5298 5295 5295 5294 5290 5286 5284 5280 5274 5267 5262 5259 5253 5243 5231 5223 5214 5204 5195 5188 5183 5181 5174 5163 5153 5148 5142 5138 5137 5137 5135 5134 5137 5139 5142 5148 5156 5167 5179
5292 5277 5273 5275 5288 5288 5292 5289 5284 5281 5277 5273 5265 5254 5246 5239 5234 5226 5216 5207 5199 5191 5182 5173 5165 5160 5157 5151 5143 5132 5122 5116 5114 5114 5113 5112 5112 5113 5117 5121 5125 5131 5142 5149
5289 5276 5267 5272 5284 5276 5280 5282 5276 5269 5264 5251 5238 5226 5217 5211 5206 5199 5191 5184 5176 5168 5161 5152 5146 5140 5137 5131 5126 5117 5108 5102 5098 5097 5096 5094 5096 5098 5101 5107 5114 5118 5124 5135